Regional Weather Roundup
Issued by NWS Upton, NY

Current Version | Previous Version | Text Only | Print | Product List | Glossary On
Versions: 1 2 3 4 5 6 7 8 9 10 11 12 13 14 15 16 17 18 19 20 21 22 23 24 25 26 27 28 29 30 31 32 33 34 35 36 37 38 39 40 41 42 43 44 45 46 47 48 49 50
000 ASUS41 KOKX 060304 RWROKX REGIONAL WEATHER ROUNDUP NATIONAL WEATHER SERVICE NEW YORK NY 1100 PM EDT THU MAY 05 2016 NOTE: "FAIR" INDICATES FEW OR NO CLOUDS BELOW 12,000 FEET WITH NO SIGNIFICANT WEATHER AND/OR OBSTRUCTIONS TO VISIBILITY. NYZ071-072-176-178-NJZ106-104-060400- NEW YORK CITY METRO AREA CITY SKY/WX TMP DP RH WIND PRES REMARKS CENTRAL PARK CLOUDY 54 43 66 E8 29.70S LAGUARDIA APRT CLOUDY 53 47 79 NE17 29.68S KENNEDY INTL CLOUDY 52 45 77 NE14G23 29.69S NEWARK/LIBERTY CLOUDY 54 46 74 NE13 29.67S BRNX BOT. GARD N/A 52 43 71 NE5 29.69S TETERBORO CLOUDY 54 44 69 NE5 29.67S $$ NYZ177-179-078>081-060400- LONG ISLAND NEW YORK CITY SKY/WX TMP DP RH WIND PRES REMARKS FARMINGDALE CLOUDY 50 44 80 NE14G25 29.68F ISLIP CLOUDY 49 41 74 NE15 29.67S SHIRLEY CLOUDY 48 42 80 N7 29.68R RIVERHEAD N/A 48 45 87 N5 29.67F WESTHAMPTON CLOUDY 43 42 97 N14 29.68F EAST HAMPTON CLOUDY 45 42 91 N8 29.66S FOG MONTAUK POINT NOT AVBL $$ NYZ052-065-067-060400- HUDSON VALLEY CITY SKY/WX TMP DP RH WIND PRES REMARKS WHITE PLAINS CLOUDY 51 43 74 NE6 29.68R NEWBURGH CLOUDY 54 46 76 E12 29.69S MONTGOMERY CLOUDY 55 45 68 NE9 29.68S POUGHKEEPSIE CLOUDY 56 45 66 NE7 29.68S ALBANY CLOUDY 54 44 69 N6 29.71F $$ NJZ001-105-106-008-010-013-015-019>022-104-060400- NEW JERSEY CITY SKY/WX TMP DP RH WIND PRES REMARKS NEWARK/LIBERTY CLOUDY 54 46 74 NE13 29.67S TETERBORO CLOUDY 54 44 69 NE5 29.67S CALDWELL CLOUDY 55 44 66 NE6 29.68S MORRISTOWN CLOUDY 54 43 66 NE8 29.67F SOMERVILLE CLOUDY 56 45 66 NE5 29.65S SUSSEX CLOUDY 54 44 69 NE5 29.69R ANDOVER N/A 53 45 74 NE5 29.69R TRENTON CLOUDY 54 44 69 NE8 29.66F MILLVILLE CLOUDY 52 46 80 E5 29.66F ATLANTIC CITY CLOUDY 50 47 89 NE9 29.65F WRIGHTSTOWN CLOUDY 52 46 79 NE7 29.65R TOMS RIVER CLOUDY 52 45 76 NE10 29.67S BELMAR CLOUDY 51 46 83 NE10 29.68S $$ PAZ047>061-062-071-060400- EASTERN PENNSYLVANIA CITY SKY/WX TMP DP RH WIND PRES REMARKS PHILADELPHIA CLOUDY 57 44 62 NE13 29.67S ALLENTOWN CLOUDY 55 45 68 N3 29.68S SCRANTON CLOUDY 53 44 71 NE7 29.70S $$ CTZ002-004>006-009-010-012-RIZ004-006-007-MAZ004-011-015-060400- SOUTHERN NEW ENGLAND IN CT CITY SKY/WX TMP DP RH WIND PRES REMARKS BRADLEY INTL CLOUDY 49 43 80 NE14 29.69F HARTFORD CLOUDY 51 43 74 N14 29.68F DANBURY CLOUDY 50 43 77 NE7 29.69F WTRBRY/OXFORD N/A 48 41 76 NE15G22 29.69F BRIDGEPORT CLOUDY 52 42 69 NE10 29.69S MERIDEN CLOUDY 51 41 68 N10G21 29.69R NEW HAVEN CLOUDY 50 42 74 NE10 29.68R CHESTER CLOUDY 46 43 87 NE8G15 29.67R GROTON LGT RAIN 46 44 93 N10 29.65F WILLIMANTIC LGT RAIN 47 42 83 N10 29.67F IN RI CITY SKY/WX TMP DP RH WIND PRES REMARKS PROVIDENCE CLOUDY 46 42 86 N17G24 29.68F BLOCK ISLAND CLOUDY 46 42 86 NE17G26 29.64F WESTERLY CLOUDY 47 41 80 N15G24 29.63F IN MA CITY SKY/WX TMP DP RH WIND PRES REMARKS BOSTON LGT RAIN 46 43 89 N13 29.70S WORCESTER LGT RAIN 43 41 93 NE13G29 29.69S WESTFIELD CLOUDY 50 42 74 NE14G22 29.70F PROVINCETOWN LGT RAIN 44 43 96 NE23G30 29.63F NANTUCKET CLOUDY N/A N/A N/A N26G39 29.56S $$ ANZ330-335-338-340-345-350-353-355-060400- COASTAL MARINE OBSERVATIONS STATION/POSITION TIME SKY/WX TEMP WIND PRES VSBY WAVE AIR SEA DIR/SP/G HT/PER (UTC) (F) (DEG/KT/KT) (MB) (MI) (FT/S) NY HARB ENTRANCE 0150 51 50 40/ 16/ 19 1003.9 4/ 8 20S FIRE ISLAND 0150 48 48 30/ 19/ 25 1003.5 7/ 7 GREAT SOUTH BAY 0200 50 53 30/ 16/ 19 N/A 23 SSW MONTAUK P 0250 46 46 20/ 19/ 25 1003.1 8/ 7 15 E BARNEGAT LI 0222 48 N/A 7/ 8 HUDSON CANYON 0150 47 49 1002.3 9/ 8 KINGS POINT 0200 1004.9 EXECUTION ROCKS NOT AVBL CENTRAL LI SOUND 0245 49 40/ 14/ 16 N/A 2/ 3 EASTERN LI SOUND 0200 47 48 20/ 12/ 16 N/A ROBBINS REEF 0200 1003.9 $$ >>>>>>>>>>>>>>>>>>>>>>>>>>>> KEY <<<<<<<<<<<<<<<<<<<<<<<<<<< > < > SKY/WX - SKY CONDITION/PRESENT WEATHER < > TMP - TEMPERATURE IN FAHRENHEIT < > DP - DEWPOINT IN FAHRENHEIT < > RH - RELATIVE HUMIDITY IN PERCENT < > WIND - DIRECTION AND SPEED IN MPH < > PRES - MEAN SEA LEVEL PRESSURE IN INCHES OF HG < > WCI - WIND CHILL INDEX < > VSB - VISIBILITY IN MILES < > HX - HEAT INDEX < > TC - TEMPERATURE IN CELSIUS < > VRB - VARIABLE WIND DIRECTION < > < >>>>>>>>>>>>>>>>>>>>>>>>>>>> KEY <<<<<<<<<<<<<<<<<<<<<<<<<<<

USA.gov is the U.S. government's official web portal to all federal, state and local government web resources and services.